Powrót do katalogu

SL-3 R/B

AktywnyPO
NORAD 7364·ROCKET BODY·🇷🇺 Russia

Wystrzelony Jul 9, 1974 z Plesetsk Cosmodrome

Loading…

Następne Przeloty (najbliższe 24 godziny)

TLE

ŚwieżeSource: Space-Track

Epoka: Sep 14, 2026, 14:01 UTC

1 07364U 74052B   26257.58418714  .00000238  00000-0  13500-3 0  9993
2 07364  81.2303 118.0596 0049688  15.5403 344.7277 14.06470534675637

Śledź SL-3 R/B w czasie rzeczywistym z AllMySat

Download on the App Store